Fremont, NE

7:57 AM CST on November 24, 2017 (GMT -0600)
Fremont Municipal

Weather History for KFET - May, 2014

Change the Weather History Date:

Saturday, May 17, 2014

  Actual Average Record
Temperature  
Mean Temperature 51 °F -  
Max Temperature 65 °F 76 °F 92 °F (1964)
Min Temperature 37 °F 53 °F 37 °F (1973)
Degree Days  
Heating Degree Days 14    
Growing Degree Days 1 (Base 50)    
Moisture  
Dew Point 34 °F    
Average Humidity 57    
Maximum Humidity 97    
Minimum Humidity 22    
Precipitation  
Precipitation 0.00 in - - ()
Sea Level Pressure  
Sea Level Pressure 30.13 in    
Wind  
Wind Speed 6 mph (WSW)    
Max Wind Speed 12 mph    
Max Gust Speed 9 mph    
Visibility 9 miles    
Events      
Averages and records for this station are not official NWS values.
T = Trace of Precipitation, MM = Missing Value Source: NWS Daily Summary

Daily Weather History Graph

Daily Weather History Graph

Search for Another Location

Airport or City:

Trip Planner

Search our weather history database for the weather conditions in past years. The results will help you decide how hot, cold, wet, or windy it might be!

Date:

Astronomy

May. 17, 2014 Rise Set
Actual Time 6:05 AM CDT 8:40 PM CDT
Civil Twilight 5:33 AM CDT 9:12 PM CDT
Nautical Twilight 4:53 AM CDT 9:52 PM CDT
Astronomical Twilight 4:09 AM CDT 10:37 PM CDT
Moon 11:41 PM CDT (5/17) 8:49 AM CDT (5/17)
Length of Visible Light 15h 38m
Length of Day
14h 35m
Waning Gibbous, 89% of the Moon is Illuminated
May 17
Waning Gibbous
May 21
Last Quarter
May 28
New
Jun 5
First Quarter
Jun 12
Full

Hourly Weather History & Observations

Time (CDT) Temp. Windchill Dew Point Humidity Pressure Visibility Wind Dir Wind Speed Gust Speed Precip Events Conditions
12:15 AM 44.1 °F 39.5 °F 39.6 °F 84% 30.14 in 10.0 mi West 8.1 mph - N/A   Clear
12:35 AM 43.5 °F 38.9 °F 39.2 °F 85% 30.14 in 10.0 mi West 8.1 mph - N/A   Clear
12:55 AM 44.1 °F 38.6 °F 39.2 °F 83% 30.14 in 10.0 mi West 10.4 mph - N/A   Clear
1:15 AM 43.7 °F 38.1 °F 38.7 °F 82% 30.14 in 10.0 mi West 10.4 mph - N/A   Clear
1:35 AM 43.7 °F 39.1 °F 38.3 °F 81% 30.14 in 10.0 mi West 8.1 mph - N/A   Clear
1:55 AM 42.8 °F 38.6 °F 38.3 °F 84% 30.14 in 10.0 mi West 6.9 mph - N/A   Clear
2:15 AM 41.2 °F 38.2 °F 37.4 °F 86% 30.14 in 10.0 mi West 4.6 mph - N/A   Clear
2:35 AM 40.1 °F 36.9 °F 37.4 °F 90% 30.14 in 10.0 mi West 4.6 mph - N/A   Clear
2:55 AM 39.7 °F 37.6 °F 37.6 °F 92% 30.14 in 10.0 mi WNW 3.5 mph - N/A   Clear
3:15 AM 38.7 °F 34.3 °F 36.9 °F 93% 30.14 in 10.0 mi WNW 5.8 mph - N/A   Clear
3:35 AM 37.9 °F 34.4 °F 36.5 °F 95% 30.14 in 10.0 mi WNW 4.6 mph - N/A   Clear
3:55 AM 37.8 °F 32.5 °F 36.5 °F 95% 30.14 in 7.0 mi West 6.9 mph - N/A   Clear
4:15 AM 37.6 °F 34.0 °F 36.5 °F 96% 30.14 in 7.0 mi West 4.6 mph - N/A   Clear
4:55 AM 37.6 °F 33.1 °F 36.5 °F 96% 30.14 in 7.0 mi West 5.8 mph - N/A   Clear
5:15 AM 37.4 °F 32.8 °F 36.5 °F 97% 30.14 in 7.0 mi West 5.8 mph - N/A   Clear
5:35 AM 37.2 °F 31.9 °F 36.1 °F 96% 30.14 in 7.0 mi West 6.9 mph - N/A   Clear
5:55 AM 37.6 °F - 36.5 °F 96% 30.14 in 5.0 mi Calm Calm - N/A   Clear
6:15 AM 37.0 °F 33.3 °F 36.0 °F 96% 30.15 in 4.0 mi West 4.6 mph - N/A   Clear
6:35 AM 37.4 °F - 36.5 °F 97% 30.15 in 4.0 mi Calm Calm - N/A   Clear
6:55 AM 38.1 °F - 36.9 °F 95% 30.15 in 5.0 mi Calm Calm - N/A   Clear
7:15 AM 39.7 °F - 38.3 °F 95% 30.16 in 4.0 mi Calm Calm - N/A   Clear
7:35 AM 41.4 °F - 39.4 °F 93% 30.16 in 7.0 mi Calm Calm - N/A   Clear
7:55 AM 43.0 °F 39.5 °F 40.3 °F 90% 30.16 in 7.0 mi WNW 5.8 mph - N/A   Clear
8:15 AM 44.2 °F 40.3 °F 41.0 °F 88% 30.16 in 7.0 mi West 6.9 mph - N/A   Clear
8:35 AM 45.5 °F 41.8 °F 41.7 °F 87% 30.16 in 10.0 mi West 6.9 mph - N/A   Clear
8:55 AM 47.7 °F - 42.8 °F 83% 30.16 in 10.0 mi West 8.1 mph - N/A   Clear
9:15 AM 49.6 °F - 42.3 °F 76% 30.16 in 10.0 mi West 6.9 mph - N/A   Clear
9:35 AM 51.4 °F - 42.8 °F 72% 30.16 in 10.0 mi West 6.9 mph - N/A   Clear
9:55 AM 53.1 °F - 42.3 °F 67% 30.16 in 10.0 mi WNW 5.8 mph - N/A   Clear
10:15 AM 55.0 °F - 42.4 °F 63% 30.16 in 10.0 mi West 6.9 mph - N/A   Clear
10:35 AM 56.3 °F - 40.6 °F 56% 30.16 in 10.0 mi West 4.6 mph - N/A   Clear
10:55 AM 58.1 °F - 36.3 °F 44% 30.16 in 10.0 mi West 4.6 mph - N/A   Clear
11:15 AM 58.1 °F - 27.9 °F 32% 30.16 in 10.0 mi South 3.5 mph - N/A   Clear
11:35 AM 58.8 °F - 30.0 °F 34% 30.16 in 10.0 mi SSE 4.6 mph - N/A   Clear
11:55 AM 59.5 °F - 29.3 °F 32% 30.17 in 10.0 mi Calm Calm - N/A   Clear
12:15 PM 59.7 °F - 28.6 °F 31% 30.16 in 10.0 mi Calm Calm - N/A   Clear
12:35 PM 61.0 °F - 28.9 °F 30% 30.16 in 10.0 mi East 6.9 mph - N/A   Clear
12:55 PM 61.5 °F - 29.8 °F 30% 30.16 in 10.0 mi Calm Calm - N/A   Clear
1:15 PM 61.9 °F - 29.3 °F 29% 30.15 in 10.0 mi East 5.8 mph - N/A   Scattered Clouds
1:35 PM 61.7 °F - 28.6 °F 29% 30.15 in 10.0 mi SE 4.6 mph 9.2 mph N/A   Clear
1:55 PM 62.4 °F - 27.5 °F 27% 30.14 in 10.0 mi ESE 8.1 mph - N/A   Clear
2:10 PM 62.2 °F - 27.1 °F 26% 30.14 in 10.0 mi ESE 9.2 mph - N/A   Clear
2:35 PM 63.7 °F - 29.3 °F 27% 30.13 in 10.0 mi SE 11.5 mph - N/A   Clear
3:15 PM 63.5 °F - 26.2 °F 24% 30.13 in 10.0 mi SSE 4.6 mph - N/A   Clear
3:35 PM 63.5 °F - 25.9 °F 24% 30.12 in 10.0 mi South 8.1 mph - N/A   Clear
3:55 PM 64.4 °F - 25.9 °F 23% 30.11 in 10.0 mi SSW 4.6 mph - N/A   Clear
4:15 PM 63.9 °F - 24.3 °F 22% 30.11 in 10.0 mi Calm Calm - N/A   Clear
4:35 PM 64.6 °F - 26.2 °F 23% 30.10 in 10.0 mi West 5.8 mph - N/A   Clear
4:55 PM 65.1 °F - 28.4 °F 25% 30.11 in 10.0 mi SSW 8.1 mph - N/A   Clear
5:15 PM 65.1 °F - 25.7 °F 23% 30.10 in 10.0 mi West 4.6 mph - N/A   Clear
5:35 PM 65.1 °F - 26.1 °F 23% 30.10 in 10.0 mi Calm Calm - N/A   Clear
5:55 PM 65.5 °F - 27.1 °F 24% 30.10 in 10.0 mi South 5.8 mph - N/A   Clear
6:15 PM 64.9 °F - 27.3 °F 24% 30.09 in 10.0 mi SSW 5.8 mph - N/A   Clear
6:35 PM 63.5 °F - 28.9 °F 27% 30.09 in 10.0 mi WSW 5.8 mph - N/A   Clear
7:00 PM 64.0 °F - 31.5 °F 30% 30.09 in 10.0 mi WSW 6.9 mph - N/A   Clear
7:15 PM 63.7 °F - 30.7 °F 29% 30.09 in 10.0 mi WSW 9.2 mph - N/A   Clear
7:35 PM 62.8 °F - 30.2 °F 29% 30.09 in 10.0 mi SW 5.8 mph - N/A   Clear
7:55 PM 61.9 °F - 30.7 °F 31% 30.10 in 10.0 mi SW 6.9 mph - N/A   Clear
8:15 PM 60.8 °F - 31.8 °F 34% 30.10 in 10.0 mi SW 5.8 mph - N/A   Clear
8:35 PM 59.9 °F - 32.0 °F 35% 30.10 in 10.0 mi SSW 4.6 mph - N/A   Clear
8:55 PM 59.9 °F - 31.8 °F 35% 30.10 in 10.0 mi Calm Calm - N/A   Clear
9:15 PM 59.0 °F - 32.2 °F 36% 30.11 in 10.0 mi SSW 3.5 mph - N/A   Clear
9:35 PM 57.7 °F - 34.2 °F 41% 30.11 in 10.0 mi Calm Calm - N/A   Clear
9:55 PM 55.9 °F - 36.5 °F 48% 30.11 in 10.0 mi South 3.5 mph - N/A   Clear
10:15 PM 54.1 °F - 37.2 °F 53% 30.12 in 10.0 mi SSE 4.6 mph - N/A   Clear
10:35 PM 53.2 °F - 36.5 °F 53% 30.12 in 10.0 mi SSE 3.5 mph - N/A   Clear
10:55 PM 52.7 °F - 37.2 °F 56% 30.12 in 10.0 mi South 4.6 mph - N/A   Clear
11:15 PM 52.7 °F - 36.7 °F 55% 30.12 in 10.0 mi South 3.5 mph - N/A   Clear
11:35 PM 53.1 °F - 36.3 °F 53% 30.13 in 10.0 mi South 3.5 mph - N/A   Clear
11:55 PM 54.3 °F - 35.6 °F 49% 30.13 in 10.0 mi South 6.9 mph - N/A   Clear